EW9935 Weather Reports


time (UTC)temp
F
wind
direction
speed
knots
gust
knots
rain 1hr
in
rain 24hr
in
rain mn
in
humidity
%
barometer
mb
20260505151517 58 360 0.0 1.7 0.00 0.00 0.00 100 1013.4
20260505124555 56 360 0.0 2.6 0.00 0.00 0.00 100 1011.8
20260505123041 56 360 0.0 3.5 0.00 0.00 0.00 100 1011.6
20260505121521 57 360 0.0 1.7 0.00 0.00 0.00 100 1011.3
20260505120011 57 360 0.0 3.5 0.00 0.00 0.00 100 1011.2
20260505114509 57 360 0.0 1.7 0.00 0.00 0.00 100 1011.0
20260505113007 57 360 0.0 0.9 0.00 0.00 0.00 100 1010.9
20260505111506 58 223 0.0 1.7 0.00 0.00 0.00 100 1010.7
20260505101558 59 360 0.0 1.7 0.00 0.00 0.00 97 1010.2
20260505100003 59 360 0.0 2.6 0.00 0.00 0.00 96 1010.0
20260505094501 59 360 0.0 0.9 0.00 0.00 0.00 94 1010.1
20260505093059 60 360 0.0 1.7 0.00 0.00 0.00 92 1010.0
20260505091556 61 360 0.0 0.9 0.00 0.00 0.00 86 1009.9
20260505090036 61 360 0.0 0.9 0.00 0.00 0.00 87 1009.6
20260505084530 61 360 0.0 2.6 0.00 0.00 0.00 87 1009.6
20260505083027 61 360 0.0 3.5 0.00 0.00 0.00 87 1009.4
20260505081531 61 175 0.0 0.9 0.00 0.00 0.00 88 1009.2
20260505080032 60 360 0.0 0.0 0.00 0.00 0.00 93 1009.0
20260505074520 60 360 0.0 0.9 0.00 0.00 0.00 93 1008.8
20260505073048 60 360 0.0 0.9 0.00 0.00 0.00 93 1008.7
20260505071546 61 360 0.0 1.7 0.00 0.00 0.00 93 1008.5
20260505070048 61 360 0.0 0.9 0.00 0.00 0.00 92 1008.3
20260505064554 61 360 0.0 0.9 0.00 0.00 0.00 92 1008.2
20260505063043 62 360 0.0 0.9 0.00 0.00 0.00 91 1008.1
20260505061541 62 360 0.0 0.9 0.00 0.00 0.00 92 1008.1
20260505060030 62 360 0.0 0.9 0.00 0.00 0.00 92 1007.9
20260505054527 63 360 0.0 0.0 0.00 0.00 0.00 92 1007.8
20260505053025 63 360 0.0 0.9 0.00 0.00 0.00 91 1007.7
20260505051522 64 360 0.0 0.9 0.00 0.00 0.00 92 1007.7
20260505041526 66 360 0.0 0.0 0.00 0.00 0.00 90 1007.1
20260505040014 67 360 0.0 0.0 0.00 0.00 0.00 88 1007.0
20260505034511 68 360 0.0 0.9 0.00 0.00 0.00 84 1006.9
20260505033010 71 360 0.0 0.0 0.00 0.00 0.00 76 1006.7
20260505031511 76 360 0.0 0.9 0.00 0.00 0.00 63 1006.6
20260505030007 76 360 0.0 0.9 0.00 0.00 0.00 61 1006.5
20260505024515 77 360 0.0 0.9 0.00 0.00 0.00 60 1006.5
20260505023003 77 360 0.0 1.7 0.00 0.00 0.00 60 1006.6
20260505021503 77 360 0.0 1.7 0.00 0.00 0.00 59 1006.7
20260505020059 77 360 0.0 2.6 0.00 0.00 0.00 58 1006.9
20260505014558 77 248 0.0 1.7 0.00 0.00 0.00 60 1006.9
20260505013101 77 360 0.0 0.9 0.00 0.00 0.00 60 1006.9
20260505011559 78 360 0.0 1.7 0.00 0.00 0.00 60 1007.0
20260505010027 79 219 0.0 1.7 0.00 0.00 0.00 62 1007.1
20260505004527 79 360 0.0 0.9 0.00 0.00 0.00 62 1007.0
20260505003023 80 360 0.0 1.7 0.00 0.00 0.00 62 1007.0
20260505001522 81 360 0.0 1.7 0.00 0.00 0.00 61 1007.1
20260505000030 81 360 0.0 0.9 0.00 0.00 0.00 59 1007.2
20260504234520 81 360 0.0 0.9 0.00 0.00 0.00 58 1007.3
20260504233022 81 360 0.0 0.9 0.00 0.00 0.00 59 1007.4
20260504231525 81 360 0.0 0.9 0.00 0.00 0.00 58 1007.5
20260504230017 81 360 0.0 0.9 0.00 0.00 0.00 59 1007.6
20260504224514 81 360 0.0 0.9 0.00 0.00 0.00 60 1007.8
20260504223010 81 360 0.0 0.9 0.00 0.00 0.00 60 1007.9
20260504221506 80 360 0.0 0.9 0.00 0.00 0.00 62 1008.0
20260504220011 80 360 0.0 0.9 0.00 0.00 0.00 61 1008.0
20260504214502 80 360 0.0 1.7 0.00 0.00 0.00 65 1008.1
20260504213100 79 360 0.0 0.9 0.00 0.00 0.00 64 1008.2
20260504211558 78 360 0.0 0.9 0.00 0.00 0.00 65 1008.3
20260504210108 78 360 0.0 0.9 0.00 0.00 0.00 65 1008.3
20260504204601 79 360 0.0 0.9 0.00 0.00 0.00 65 1008.4
20260504203053 79 360 0.0 1.7 0.00 0.00 0.00 67 1008.5
20260504201551 78 360 0.0 0.9 0.00 0.00 0.00 69 1008.5
20260504200046 77 360 0.0 0.9 0.00 0.00 0.00 71 1008.6
20260504194601 77 360 0.0 1.7 0.00 0.00 0.00 71 1008.6
20260504193042 76 360 0.0 0.9 0.00 0.00 0.00 72 1008.6
20260504191546 75 360 0.0 0.9 0.00 0.00 0.00 73 1008.6
20260504190044 75 360 0.0 0.9 0.00 0.00 0.00 73 1008.8
20260504184539 75 360 0.0 0.9 0.00 0.00 0.00 76 1008.8
20260504183033 75 360 0.0 0.9 0.00 0.00 0.00 75 1008.7
20260504181502 74 360 0.0 0.9 0.00 0.00 0.00 75 1008.8
20260504180001 74 360 0.0 1.7 0.00 0.00 0.00 74 1008.8
20260504174533 75 360 0.0 0.9 0.00 0.00 0.00 72 1008.6
20260504173033 73 5 0.0 0.0 0.00 0.00 0.00 68 1008.7
20260504171521 72 32 0.0 0.9 0.00 0.00 0.00 71 1008.6